Voltar ao catálogo

KSAT3U

AtivoCiênciaSSO
NORAD 56747·PAYLOAD·🇰🇷 South Korea
Este nome de satélite ainda não foi confirmado por fontes oficiais.

Lançado May 25, 2023 de Naro Space Center

Loading…

Próximas Passagens (próximas 24 horas)

TLE

AtualizadoSource: Space-Track

Época: Sep 14, 2026, 14:34 UTC

1 56747U 23072E   26257.60753153  .00024477  00000-0  40678-3 0  9997
2 56747  97.4948 110.4607 0003467  43.6000 316.5525 15.52069796184239

Acompanhe KSAT3U em tempo real com AllMySat

Download on the App Store